Location: Caldwell Dam
(33.2151°N, 96.8119°W)
Time: 01:28:58
(UTC+00:00)

Daily predictions for brighter satellites

Satellite Brightness Start Highest point End
(mag) Time Altitude Azimuth Time Altitude Azimuth Time Altitude Azimuth
SJ 16-02 4.0 00:01:43 10° NW 00:05:16 24° W 00:08:48 10° SSW
Cosmos 1602 3.9 00:03:33 10° N 00:07:18 50° E 00:11:04 10° SSE
Cosmos 1697 Rocket 2.9 00:04:05 10° N 00:09:28 45° ENE 00:14:48 10° SE
Cosmos 2369 4.4 00:05:42 10° N 00:10:41 30° ENE 00:15:38 10° ESE
SKYMED 2 3.9 00:06:45 10° NNE 00:10:56 46° E 00:15:05 10° S
Meteor 1-25 Rocket 4.1 00:07:10 10° N 00:12:45 79° E 00:18:22 10° S
Cosmos 1980 Rocket 3.2 00:08:20 10° N 00:12:51 24° ENE 00:17:18 10° ESE
Cosmos 44 3.4 00:10:33 10° NNW 00:15:09 70° WSW 00:19:29 10° SSE
Cosmos 1500 Rocket 4.1 00:12:07 10° NNW 00:16:29 63° W 00:20:48 10° S
Cosmos 2082 Rocket 2.2 00:13:04 10° SSW 00:18:45 82° ESE 00:24:27 10° NNE
Cosmos 1340 Rocket 4.0 00:14:53 10° NNW 00:18:48 47° W 00:22:42 10° SSW
CZ-2D R/B 3.1 00:16:14 10° SSE 00:20:03 70° ENE 00:23:52 10° N
Meteor 2-14 Rocket 4.4 00:14:01 10° N 00:20:03 61° E 00:26:01 10° SSE
Landsat 5 3.8 00:18:39 10° NNE 00:22:33 42° E 00:26:17 10° S
CZ-4B DEB 4.3 00:17:06 10° SSE 00:22:38 87° WSW 00:28:10 10° NNW
COSMOS 2455 3.1 00:19:10 10° SSW 00:25:08 70° WNW 00:31:10 10° NNE
Cosmos 1805 Rocket 3.5 00:23:36 10° N 00:27:57 85° W 00:32:16 10° S
Cosmos 841 Rocket 3.8 00:24:01 10° SSW 00:29:09 66° WNW 00:34:17 10° N
Sich 1 2.9 00:26:07 10° N 00:30:25 77° E 00:34:44 10° S
H-2A R/B 4.2 00:33:28 12° ESE 00:33:28 12° ESE 00:34:12 10° SE
COSMOS 2406 4.4 00:28:59 10° SW 00:34:23 41° WNW 00:39:48 10° N
MOS 1-B Rocket 4.4 00:31:06 10° N 00:37:06 72° WNW 00:44:02 10° SSW
Cosmos 1937 Rocket 3.4 00:33:11 10° NNW 00:38:32 75° ENE 00:43:48 10° SSE
deb Chang Zheng 4 3.5 00:34:44 10° SSE 00:38:58 61° ENE 00:43:13 10° N
Cosmos 1515 Rocket 4.5 00:35:13 10° SSE 00:38:47 27° E 00:38:47 27° E
USA 276 3.0 00:36:30 10° NNW 00:38:58 31° NNE 00:38:58 31° NNE
Meteor 2-21 Rocket 4.3 00:34:45 10° N 00:40:50 67° E 00:46:49 10° SSE
CZ-4C R/B 3.7 00:36:57 10° N 00:43:32 31° NE 00:46:40 25° E
Meteor 2-6 Rocket 4.2 00:38:18 10° S 00:44:04 64° E 00:49:42 10° NNE
ARGOS 3.1 00:39:10 10° SSE 00:44:28 61° ENE 00:49:48 10° N
Cosmos 1500 3.2 00:41:24 10° N 00:45:08 78° W 00:48:50 10° S
Aurora 2 Rocket 4.4 00:40:44 10° WSW 00:45:38 37° S 00:51:08 14° ESE
CZ-2C R/B 2.2 00:42:16 10° SW 00:46:05 34° SSE 00:47:08 29° ESE
X-37B 2.5 00:45:21 10° S 00:46:39 17° SSE 00:46:39 17° SSE
Cosmos 2084 3.6 00:46:21 10° NNW 00:50:45 80° WSW 00:55:18 10° SSE
BREEZE-M DEB (TANK) 3.9 00:49:24 10° NW 00:54:34 52° SW 00:56:01 24° SSE
Cosmos 372 Rocket 3.9 00:49:50 10° N 00:55:02 66° ENE 01:00:14 10° SSE
CZ-4B R/B 3.2 00:52:15 10° S 00:57:43 80° WSW 01:03:07 10° NNW
COSMO-SKYMED 1 3.7 00:54:49 10° N 00:58:57 44° WNW 01:03:02 10° SW
Meteor 1-10 Rocket 4.2 00:53:39 10° S 00:59:24 63° E 01:03:24 20° NNE
BREEZE-M DEB (TANK) 4.4 00:41:59 10° NW 01:00:12 83° NE 01:02:52 29° ESE
Feng Yun 1-1 Rocket 4.3 01:03:03 10° SSE 01:08:54 65° ENE 01:14:45 10° N
DMSP B5D2-2 3.9 01:08:11 34° NNE 01:10:31 74° ESE 01:15:44 10° S
Okean O Rocket 1.9 01:06:39 10° S 01:11:02 66° WSW 01:15:28 10° NNW
Cosmos 921 Rocket 2.7 01:07:13 10° SSW 01:11:23 85° ESE 01:11:30 83° ENE
Cosmos 1633 Rocket 3.0 01:08:03 10° N 01:12:25 81° W 01:16:48 10° S
CZ-2C R/B 3.9 01:07:47 10° N 01:12:33 38° WNW 01:17:17 10° SW
Cosmos 1666 3.0 01:11:15 10° NNW 01:14:54 60° W 01:18:33 10° S
GPS 2-04 Rocket1 3.1 01:12:56 10° WNW 01:16:26 57° NW 01:16:26 57° NW
USA 229 DEB 4.5 01:12:03 10° NW 01:19:29 61° WSW 01:27:13 10° SSE
USA 229 4.4 01:12:08 10° NW 01:19:35 62° WSW 01:27:19 10° SSE
USA 234 3.9 01:20:32 10° SSE 01:26:55 55° SW 01:33:18 10° NW
Cosmos 2266 Rocket 3.9 01:23:08 10° N 01:29:32 74° E 01:35:55 10° SSE
ATLAS 3B CENTAUR R/B 4.4 01:18:45 10° WSW 01:38:37 71° S 01:44:33 43° ESE
Cosmos 1867 4.5 01:37:05 10° SSW 01:40:29 38° S 01:40:29 38° S
BREEZE M DEB (TANK) 4.1 01:40:59 10° NW 01:53:14 51° WSW 01:54:27 43° SSW
Cosmos 1980 Rocket 3.4 01:51:42 10° NW 01:56:54 39° WSW 02:02:03 10° S
Cosmos 1655 Rocket 4.4 01:50:58 10° NNW 01:57:15 61° W 02:03:28 10° S
CZ-4C R/B 3.4 02:24:49 10° NW 02:32:00 61° W 02:32:00 61° W
Cosmos 2369 Rocket 3.9 10:16:10 10° SSE 10:20:52 29° ESE 10:25:34 10° NE
Tsikada Rocket 4.1 10:41:41 10° S 10:47:48 71° E 10:54:01 10° N
Cosmos 1943 Rocket 4.0 10:53:03 18° N 10:53:03 18° N 10:54:30 10° NNE
H-2A R/B (2) 3.8 10:50:29 18° S 10:52:03 22° SE 10:58:26 10° E
Cosmos 841 Rocket 4.5 11:02:19 34° S 11:02:19 34° S 11:05:17 10° S
Cosmos 2082 Rocket 3.1 11:03:19 33° SSW 11:03:19 33° SSW 11:06:33 10° S
OAO 1 4.5 11:08:06 69° SW 11:08:21 70° SSW 11:13:50 10° ESE
DELTA 2 R/B (1) 3.4 11:16:12 65° W 11:16:56 77° NNW 11:22:29 10° ENE
Cosmos 2098 Rocket 3.7 11:15:50 10° SSE 11:19:12 48° E 11:23:21 10° NNE
Envisat 3.2 11:15:14 10° NNE 11:20:18 71° ESE 11:25:21 10° S
Cosmos 921 Rocket 4.4 11:17:57 14° N 11:21:24 37° ENE 11:25:33 10° SE
Cosmos 968 Rocket 4.1 11:23:25 37° NNW 11:23:25 37° NNW 11:26:47 10° N
CENTAUR R/B 3.8 11:25:00 23° NNW 11:25:00 23° NNW 11:28:49 10° N
Meteor 2-3 Rocket 3.8 11:22:08 10° SSW 11:27:33 48° W 11:33:04 10° N
Cosmos 1766 Rocket 4.0 11:27:01 10° S 11:31:17 59° E 11:35:32 10° NNE
Cosmos 1151 Rocket 4.1 11:30:59 10° N 11:35:12 45° E 11:39:23 10° SSE
ATLAS 5 CENTAUR R/B 3.8 11:34:34 10° SSE 11:37:27 21° ESE 11:40:27 10° ENE
Meteor 2-13 Rocket 4.3 11:33:00 10° SSW 11:39:02 66° W 11:45:07 10° N
Meteor 1-31 Rocket 2.7 11:35:26 10° NNE 11:39:21 86° ESE 11:43:15 10° SSW
Cosmos 1782 2.6 11:38:31 37° NNW 11:39:56 72° W 11:43:51 10° S
Hubble Space Telescope 2.3 11:39:46 22° SW 11:40:37 24° SSW 11:43:57 10° SE
Cosmos 1862 3.3 11:37:34 10° S 11:41:29 77° E 11:45:26 10° N
NOSS 3-2 (C) 4.4 11:43:34 24° NW 11:43:34 24° NW 11:47:51 10° N
CBERS 1 LM4 rocket 4.3 11:39:05 10° N 11:44:00 81° WNW 11:49:05 10° SSW
ADEOS 4.1 11:41:03 10° NNE 11:46:14 62° ESE 11:51:22 10° S
Cosmos 1570 Rocket 4.3 11:44:24 32° NW 11:46:18 45° WSW 11:51:16 10° S
SJ-12 4.0 11:44:20 10° N 11:48:20 49° WNW 11:52:19 10° SSW
COSMO-SKYMED 1 2.6 11:45:01 10° SSE 11:49:20 83° ENE 11:53:41 10° N
Meteor 1-26 Rocket 4.3 11:44:42 10° NNW 11:50:28 58° W 11:56:01 10° S
ATLAS 3B R/B 4.1 11:44:47 10° S 11:50:38 38° ESE 11:56:40 10° NE
Cosmos 2263 4.2 11:45:51 10° SSW 11:51:25 59° WNW 11:57:04 10° NNE
H-2A R/B 3.0 11:47:54 10° N 11:51:26 42° WNW 11:55:00 10° SSW
Gbstr 26 Del rocket 2.8 11:51:15 36° WNW 11:52:44 69° SW 11:57:11 10° SE
CZ-4C R/B 4.0 11:52:47 10° SSE 11:55:47 40° ENE 11:58:45 10° N
